{"data":{"norad_id":54862,"epoch":"2026-05-25T01:51:21.268800Z","epoch_age_seconds":78419,"freshness":"FRESH","line1":"1 54862U 22177AU  26145.07732950 -.00001213  00000+0 -34557-4 0  9991","line2":"2 54862  43.0065  50.1560 0001442 252.3574 107.7121 15.27572242188778","mean_motion":15.27572242,"eccentricity":0.0001442,"inclination_deg":43.0065,"raan_deg":50.156,"arg_perigee_deg":252.3574,"mean_anomaly_deg":107.7121,"bstar":-3.4557e-5,"rev_number":18877,"period_min":94.267227461181,"perigee_km":482.08293999603,"apogee_km":484.06171276576,"semimajor_km":6861.2093263809,"source":"CELESTRAK","updated_at":"2026-05-25T13:38:17.728080Z"}}